Flag for Germany Weather past 2 weeks in Herten, North Rhine-Westphalia, Germany

Now
91 °F

Partly sunny.


Feels Like: 88 °F
Forecast: 72 / 93 °F
Wind: 5 mph from Southeast

Location: Essen

Current Time: Jul 1, 2015 at 6:25:51 PM

Latest Report: Jul 1, 2015 at 6:00 PM


Visibility: 31 mi

Pressure: 30.01 "Hg

Humidity: 25%

Dew point: 51 °F

Location of HertenLocation

Historic Weather in Herten — Graph

°F

Herten temperature yesterday

Maximum temperature yesterday: 81 °F (at 6:00 PM)
Minimum temperature yesterday: 60 °F (at 6:00 AM)
Average temperature yesterday: 71 °F

Past Weeks' High & Low Weather Summary

 TemperatureHumidityPressure
High91 °F (Jul 1, 5:00 PM)100% (Jun 18, 2:00 AM)30.31 "Hg (Jun 18, 2:00 AM)
Low46 °F (Jun 17, 5:00 AM)24% (Jul 1, 5:00 PM)29.71 "Hg (Jun 22, 9:00 PM)
Average62 °F72%30.08 "Hg
* Reported Jun 16 5:00 PM — Jul 1 5:00 PM, Herten, Weather by CustomWeather, © 2015

Note: Actual official high and low records may vary slightly from our data, if they occured in-between our weather recording intervals... More about our weather records

Advertising

Herten weather history for previous 24 hours

 ConditionsComfort  
Time TempWeatherWind HumidityBarometerVisibility
5:00 PM
Wed, Jul 1
91 °FSunny.6 mph24%30.02 "Hg22 mi
4:00 PM90 °FScattered clouds.5 mph29%30.02 "Hg19 mi
3:00 PM89 °FPartly sunny.5 mph29%30.03 "Hg17 mi
2:00 PM89 °FPartly sunny.6 mph29%30.04 "Hg17 mi
1:00 PM87 °FPartly sunny.6 mph28%30.06 "Hg19 mi
12:00 PM87 °FSunny.5 mph33%30.06 "Hg14 mi
11:00 AM86 °FScattered clouds.5 mph37%30.07 "Hg19 mi
10:00 AM82 °FOvercast.3 mph42%30.08 "Hg25 mi
9:00 AM77 °FPassing clouds.3 mph51%30.09 "Hg22 mi
8:00 AM73 °FPassing clouds.3 mph54%30.09 "Hg22 mi
7:00 AM70 °FSunny.2 mph58%30.09 "Hg25 mi
6:00 AM65 °FSunny.3 mph67%30.10 "Hg28 mi
5:00 AM66 °FClear.3 mph64%30.09 "Hg31 mi
4:00 AM65 °FPassing clouds.3 mph66%30.09 "Hg31 mi
3:00 AM65 °FClear.2 mph67%30.10 "Hg34 mi
2:00 AM67 °FClear.3 mph62%30.10 "Hg34 mi
1:00 AM69 °FClear.5 mph57%30.11 "Hg43 mi
12:00 AM70 °FClear.3 mph53%30.11 "Hg40 mi
11:00 PM
Tue, Jun 30
72 °FClear.5 mph49%30.11 "Hg40 mi
10:00 PM74 °FClear.5 mph45%30.11 "Hg37 mi
9:00 PM77 °FSunny.5 mph44%30.10 "Hg40 mi
8:00 PM79 °FSunny.5 mph37%30.10 "Hg34 mi
7:00 PM80 °FSunny.3 mph37%30.10 "Hg28 mi
6:00 PM81 °FSunny.3 mph37%30.11 "Hg31 mi
Weather by CustomWeather, © 2015

See weather overviewHow to use our weather pages